TimeMST,TemperatureF,Dew PointF,Humidity,Sea Level PressureIn,VisibilityMPH,Wind Direction,Wind SpeedMPH,Gust SpeedMPH,PrecipitationIn,Events,Conditions,WindDirDegrees,DateUTC
12:53 AM,3.9,-0.0,84,30.51,6.0,Calm,Calm,-,N/A,,Clear,0,2013-01-21 07:53:00
1:53 AM,3.9,-0.0,84,30.49,10.0,ESE,3.5,-,N/A,,Clear,110,2013-01-21 08:53:00
2:53 AM,1.9,-2.0,83,30.52,7.0,NE,4.6,-,N/A,,Clear,40,2013-01-21 09:53:00
3:53 AM,3.0,-0.9,84,30.50,10.0,East,3.5,-,N/A,,Clear,90,2013-01-21 10:53:00
4:53 AM,3.0,-0.9,84,30.51,9.0,East,3.5,-,N/A,,Clear,90,2013-01-21 11:53:00
5:53 AM,6.1,1.0,80,30.53,10.0,NE,4.6,-,N/A,,Clear,50,2013-01-21 12:53:00
6:53 AM,-0.9,-6.0,79,30.59,8.0,Calm,Calm,-,N/A,,Clear,0,2013-01-21 13:53:00
7:53 AM,-2.0,-8.0,76,30.62,7.0,NNE,3.5,-,N/A,,Clear,30,2013-01-21 14:53:00
8:53 AM,12.0,8.1,84,30.58,10.0,Calm,Calm,-,N/A,,Clear,0,2013-01-21 15:53:00
9:53 AM,17.1,10.0,74,30.57,9.0,Calm,Calm,-,N/A,,Clear,0,2013-01-21 16:53:00
10:53 AM,19.9,8.1,60,30.58,10.0,Calm,Calm,-,N/A,,Clear,0,2013-01-21 17:53:00
11:53 AM,26.1,10.0,51,30.55,10.0,Calm,Calm,-,N/A,,Clear,0,2013-01-21 18:53:00
12:53 PM,30.0,10.9,45,30.52,10.0,Calm,Calm,-,N/A,,Clear,0,2013-01-21 19:53:00
1:53 PM,33.1,12.9,43,30.48,10.0,ENE,3.5,-,N/A,,Clear,60,2013-01-21 20:53:00
2:53 PM,33.1,12.0,42,30.46,10.0,Calm,Calm,-,N/A,,Clear,0,2013-01-21 21:53:00
3:53 PM,34.0,12.0,40,30.45,10.0,Calm,Calm,-,N/A,,Clear,0,2013-01-21 22:53:00
4:53 PM,30.9,15.1,52,30.47,10.0,NE,3.5,-,N/A,,Clear,50,2013-01-21 23:53:00
5:53 PM,23.0,12.9,65,30.48,10.0,Calm,Calm,-,N/A,,Clear,0,2013-01-22 00:53:00
6:53 PM,17.1,10.9,77,30.55,10.0,WNW,3.5,-,N/A,,Clear,300,2013-01-22 01:53:00
7:53 PM,15.1,8.1,74,30.57,10.0,SE,4.6,-,N/A,,Clear,130,2013-01-22 02:53:00
8:53 PM,12.9,7.0,77,30.53,10.0,NE,3.5,-,N/A,,Clear,50,2013-01-22 03:53:00
9:53 PM,12.0,6.1,77,30.51,10.0,ESE,3.5,-,N/A,,Clear,120,2013-01-22 04:53:00
10:53 PM,10.0,6.1,84,30.50,8.0,North,5.8,-,N/A,,Clear,360,2013-01-22 05:53:00
11:53 PM,10.0,5.0,80,30.47,8.0,ESE,3.5,-,N/A,,Clear,120,2013-01-22 06:53:00